User: anonymous   Login
Location: Drignac
(45.1667°N, 2.0333°E)
Time: 00:55:34
(UTC+00:00)
Language:

FREGAT/IRIS - Orbit

View from above orbital plane
View from above orbital plane
View from above satellite
View from above satellite

Ground track
Ground track

The orbit data is extracted from the following two-line orbital elements,

1 35867U 09049C   20188.90894766  .00015762  00000-0  80251-4 0  9990
2 35867  96.9249 227.4823 0000108 100.1670  23.4662 15.81507777609154
Epoch (UTC): 06 July 2020 21:48:53
Eccentricity: 0.0000108
inclination: 96.9249°
perigee height: 326 km
apogee height: 326 km
right ascension of ascending node: 227.4823°
argument of perigee: 100.1670°
revolutions per day: 15.81507777
mean anomaly at epoch: 23.4662°
orbit number at epoch: 60915

The dashed part of the orbit path shows where the satellite is in the earth's shadow,  

DLR